星链-31461 (STARLINK-31461 )

导读

STARLINK-31461是美国SpaceX星链计划的卫星,于2024年3月31日发射。星链计划旨在构建全球卫星互联网星座,该卫星加入低轨星座后,进一步扩展了星链的全球网络覆盖能力,可为偏远地区、海洋等场景提供高速互联网服务,也助力美国提升天基通信与太空布局优势。

Basic Information
目录编号:
59370
目录名称:
STARLINK-31461
国际标识:
2024-060Y
轨道中心:
EARTH
卫星名称:
星链-31461
卫星全名:
星链-31461 (STARLINK-31461 )
卫星状态:
在轨 (已飞行894 天)
发射日期:
2024-03-31 UTC
国别 :
美国 (US)
星等 :
--
This satellite is enrolled in the Space Conjunction Data Service (SCDS) and the current flight risk assessment level is: High Risk
Orbit Information
数据来源 国际轨道数据
星历时间: 2026-09-11T10:19:05+0800
14小时前
查看轨道信息
半长轴: 6861.201km
偏心率: 0.00013
轨道倾角: 43.001°
近地点辐角 269.789°
升交点赤经 281.940°
平近点角 90.282°
近地点: 482.172km
远地点: 483.956km
周期: 94.267分钟
每日圈数: 15.275752
Detailed Information
固有亮度:
5
最大亮度:
0.3
卫星平台:
Starlink v2.0 mini
覆盖范围:
全球
运营商:
太空探索技术公司
运营商所在国:
美国
制造商(研发单位):
太空探索技术公司
制造商所在国:
美国
使用方式:
暂无
Satellite Introduction
星链(Starlink)计划是由太空探索技术公司(SpaceX)提出的一个巨型低轨卫星互联网星座项目,计划在2019年至2024年间在太空搭建由约1.2万颗卫星组成的“星链”网络,其中1584颗将部署在地球上空550千米处的近地轨道,并从2020年开始工作。该卫星仍在工作。
2D Orbit Map
3D Orbit Map
Orbit Altitude Analysis Chart
Orbit Inclination Analysis Chart
Orbit Comprehensive Analysis Chart
View Comprehensive Chart
Conjunction Data List
Event ID Objects TCA Miss Dist (km) Collision Risk Probability Collision Risk Index (CRI) Action
CDM_260910-170705-937006-275022
2026-09-10T
17:07:37+0000
0.240 km
中距离
5.206224E-4 高风险 0.89
CDM_260911-125805-937006-257221
2026-09-11T
12:58:53+0000
0.460 km
远距离
1.136622E-4 高风险 0.76
CDM_260911-080205-937006-275022
2026-09-11T
08:02:05+0000
0.684 km
远距离
5.896942E-5 中风险 0.7
CDM_260913-201204-944005-937021
2026-09-13T
20:12:49+0000
0.760 km
远距离
5.572686E-5 中风险 0.7
CDM_260911-154505-937006-340321
2026-09-11T
15:45:59+0000
0.879 km
远距离
3.157762E-5 中风险 0.65
CDM_260911-035905-937006-340321
2026-09-11T
03:59:51+0000
0.992 km
远距离
2.096038E-5 中风险 0.61
CDM_260911-071705-937006-391421
2026-09-11T
07:17:41+0000
0.972 km
远距离
1.619634E-5 中风险 0.59
CDM_260911-155505-937006-391421
2026-09-11T
15:55:32+0000
1.589 km
极远距离
3.120813E-6 低风险 0.45
CDM_260911-053405-937006-340321
2026-09-11T
05:34:00+0000
1.883 km
极远距离
2.588429E-6 低风险 0.43
CDM_260910-184105-937006-275022
2026-09-10T
18:41:46+0000
1.798 km
极远距离
2.501349E-6 低风险 0.43
Miss Distance Evolution Trend with All Objects
Collision Probability Evolution Trend with All Objects